TimeCDT,TemperatureF,Dew PointF,Humidity,Sea Level PressureIn,VisibilityMPH,Wind Direction,Wind SpeedMPH,Gust SpeedMPH,PrecipitationIn,Events,Conditions,WindDirDegrees,DateUTC
12:15 AM,64.4,57.2,77,30.04,10.0,South,9.2,-,N/A,,Clear,190,2013-07-04 05:15:00
12:35 AM,64.4,57.2,77,30.04,10.0,South,3.5,-,N/A,,Clear,180,2013-07-04 05:35:00
12:55 AM,62.6,57.2,82,30.03,10.0,South,5.8,-,N/A,,Clear,170,2013-07-04 05:55:00
1:15 AM,62.6,57.2,82,30.03,10.0,South,6.9,-,N/A,,Clear,180,2013-07-04 06:15:00
1:35 AM,62.6,57.2,82,30.03,10.0,South,5.8,-,N/A,,Clear,190,2013-07-04 06:35:00
1:55 AM,60.8,57.2,88,30.03,10.0,South,5.8,-,N/A,,Clear,190,2013-07-04 06:55:00
2:15 AM,60.8,55.4,82,30.03,10.0,SSW,5.8,-,N/A,,Clear,210,2013-07-04 07:15:00
2:35 AM,60.8,55.4,82,30.02,10.0,South,4.6,-,N/A,,Clear,170,2013-07-04 07:35:00
2:55 AM,60.8,55.4,82,30.02,10.0,Calm,Calm,-,N/A,,Clear,0,2013-07-04 07:55:00
3:15 AM,59.0,55.4,88,30.03,10.0,SSW,4.6,-,N/A,,Clear,200,2013-07-04 08:15:00
3:35 AM,59.0,55.4,88,30.03,10.0,SSW,4.6,-,N/A,,Clear,200,2013-07-04 08:35:00
3:55 AM,59.0,55.4,88,30.02,10.0,SSW,4.6,-,N/A,,Clear,200,2013-07-04 08:55:00
4:15 AM,59.0,55.4,88,30.02,10.0,Calm,Calm,-,N/A,,Clear,0,2013-07-04 09:15:00
4:35 AM,60.8,53.6,77,30.02,10.0,WSW,5.8,-,N/A,,Clear,240,2013-07-04 09:35:00
4:55 AM,60.8,53.6,77,30.03,10.0,WSW,5.8,-,N/A,,Clear,250,2013-07-04 09:55:00
5:15 AM,59.0,53.6,82,30.03,10.0,South,4.6,-,N/A,,Clear,170,2013-07-04 10:15:00
5:35 AM,57.2,53.6,88,30.04,10.0,South,6.9,-,N/A,,Clear,170,2013-07-04 10:35:00
5:55 AM,57.2,53.6,88,30.04,10.0,SSW,3.5,-,N/A,,Clear,210,2013-07-04 10:55:00
6:15 AM,59.0,53.6,82,30.04,10.0,SSW,4.6,-,N/A,,Clear,210,2013-07-04 11:15:00
6:35 AM,57.2,53.6,88,30.04,10.0,SSE,4.6,-,N/A,,Clear,160,2013-07-04 11:35:00
6:55 AM,59.0,55.4,88,30.04,9.0,SSE,3.5,-,N/A,,Clear,150,2013-07-04 11:55:00
7:15 AM,60.8,57.2,88,30.05,9.0,SSE,3.5,-,N/A,,Clear,150,2013-07-04 12:15:00
7:35 AM,62.6,57.2,82,30.05,10.0,South,3.5,-,N/A,,Clear,170,2013-07-04 12:35:00
7:55 AM,64.4,59.0,83,30.05,-9999.0,South,3.5,-,N/A,,Clear,170,2013-07-04 12:55:00
8:15 AM,66.2,57.2,73,30.06,10.0,South,9.2,-,N/A,,Clear,180,2013-07-04 13:15:00
8:35 AM,68.0,57.2,68,30.06,10.0,South,9.2,-,N/A,,Clear,190,2013-07-04 13:35:00
8:55 AM,69.8,57.2,64,30.06,10.0,South,9.2,-,N/A,,Clear,190,2013-07-04 13:55:00
9:15 AM,71.6,57.2,60,30.06,10.0,South,10.4,-,N/A,,Clear,190,2013-07-04 14:15:00
6:15 PM,82.4,57.2,42,29.98,10.0,SSW,13.8,-,N/A,,Clear,200,2013-07-04 23:15:00
6:55 PM,80.6,57.2,45,29.98,10.0,South,11.5,-,N/A,,Clear,170,2013-07-04 23:55:00
8:15 PM,77.0,57.2,50,29.97,10.0,SSE,6.9,-,N/A,,Clear,160,2013-07-05 01:15:00
10:55 PM,68.0,59.0,73,29.99,10.0,SSE,6.9,-,N/A,,Clear,150,2013-07-05 03:55:00
11:15 PM,66.2,59.0,78,29.99,10.0,SSE,6.9,-,N/A,,Clear,150,2013-07-05 04:15:00
11:35 PM,68.0,59.0,73,29.99,10.0,SSE,8.1,-,N/A,,Clear,150,2013-07-05 04:35:00
11:55 PM,66.2,59.0,78,29.99,10.0,SSE,8.1,-,N/A,,Clear,150,2013-07-05 04:55:00